User: anonymous   Login
Location: Unspecified
(0.0000°N, 0.0000°E)
Time: 07:22:13
(UTC+00:00)
Language:

TUPOD - Orbit

View from above orbital plane
View from above orbital plane
View from above satellite
View from above satellite

Ground track
Ground track

The orbit is defined by the following mean orbital elements,

1 41936U 98067KY  17250.57341446  .07502361  12188-4  17908-2 0  9997
2 41936  51.6148 320.0413 0007592 348.0024  12.1012 16.28694591 36150
Epoch (UTC): 07 September 2017 13:45:43
Eccentricity: 0.0007592
inclination: 51.6148°
perigee height: 191 km
apogee height: 201 km
right ascension of ascending node: 320.0413°
argument of perigee: 348.0024°
revolutions per day: 16.28694591
mean anomaly at epoch: 12.1012°

The dashed part of the orbit path shows where the satellite is in the earth's shadow,  

DLR